Location: Blangy-Tronville
(49.8790°N, 2.4226°E)
Time: 23:17:51
(UTC+00:00)

Cosmos 2278 Rocket - Pass Details

Date: 18 November 2025
Orbit: 841 x 843 km, 71.0° (Epoch: 05 December)

Event Time Altitude Azimuth Distance (km) Brightness Sun altitude
Rises 17:35:18 0° 204° (SSW) 3,386 5.9 -14.7°
Reaches altitude 10° 17:37:43 10° 203° (SSW) 2,455 5.1 -15.1°
Maximum altitude 17:43:22 83° 117° (ESE) 855 2.1 -15.9°
Enters shadow 17:48:31 13° 30° (NNE) 2,274 4.1 -16.8°
